Location: Gu�tanj
(46.5431°N, 14.9692°E)
Time: 12:45:25
(UTC+00:00)

Cosmos 2366 rocket - Pass Details

Date: 20 June 2021
Orbit: 955 x 997 km, 82.9° (Epoch: 30 July)

Event Time Altitude Azimuth Distance (km) Brightness Sun altitude
Rises 19:30:38 0° 332° (NNW) 3,723 8.7 -5.3°
Maximum altitude 19:36:51 10° 286° (WNW) 2,771 7.5 -6.1°
Drops below altitude 10° 19:36:58 10° 285° (WNW) 2,772 7.5 -6.1°
Sets 19:43:04 0° 240° (WSW) 3,708 7.2 -6.9°
